User: anonymous   Login
Location: Unspecified
(38.7273°N, 77.0677°W)
Time: 13:44:10
(UTC-05:00)
Language:

FENGYUN 1C DEB - Orbit

View from above orbital plane
View from above orbital plane
View from above satellite
View from above satellite

Ground track
Ground track

The orbit data is extracted from the following two-line orbital elements,

1 31959U 99025CNL 22014.41198304  .00001787  00000-0  82269-3 0  9994
2 31959  98.5717 253.2868 0042723  47.1973 313.2785 14.21847950439229
Epoch (UTC): 14 January 2022 09:53:15
Eccentricity: 0.0042723
inclination: 98.5717°
perigee height: 788 km
apogee height: 850 km
right ascension of ascending node: 253.2868°
argument of perigee: 47.1973°
revolutions per day: 14.21847950
mean anomaly at epoch: 313.2785°
orbit number at epoch: 43922

The dashed part of the orbit path shows where the satellite is in the earth's shadow,  

DLR